�N����,����,�~����,�C��,���x,�C��,����,���ϕ���,�ő�u�ԕ���,�ő厞����,���˗�,�I�_���x,�n�����x,�ő啗���N��,DTYPE
"23/06/01","00:10",0.0,14.8,77.9,1007.4,341.8,2.1,4.2,332.6,0.00,11.0,19.4,"00:00:16",1
"23/06/01","00:20",0.0,14.6,78.6,1007.1,337.0,1.7,3.3,333.6,0.00,11.0,19.2,"00:19:32",1
"23/06/01","00:30",0.0,14.4,79.0,1007.4,332.9,2.2,3.6,330.4,0.00,10.8,19.2,"00:27:30",1
"23/06/01","00:40",0.0,14.5,78.7,1007.6,329.4,2.8,4.5,332.5,0.00,10.9,19.2,"00:37:08",1
"23/06/01","00:50",0.0,14.5,78.3,1008.1,295.9,2.0,3.4,327.6,0.00,10.8,19.0,"00:40:42",1
"23/06/01","01:00",0.0,14.3,79.0,1007.8,328.9,2.6,4.2,346.5,0.00,10.8,19.1,"00:55:02",1
"23/06/01","01:10",0.0,14.1,79.7,1007.8,329.2,2.2,3.6,323.5,0.00,10.7,18.9,"01:00:18",1
"23/06/01","01:20",0.0,14.1,80.1,1007.6,321.1,2.2,3.2,332.2,0.00,10.8,19.0,"01:11:44",1
"23/06/01","01:30",0.0,14.0,80.5,1007.8,320.9,2.0,3.5,343.4,0.00,10.7,18.9,"01:25:20",1
"23/06/01","01:40",0.0,13.9,81.1,1008.1,320.4,2.1,3.3,314.6,0.00,10.8,19.0,"01:34:40",1
"23/06/01","01:50",0.0,13.9,81.5,1007.8,298.8,2.0,3.3,323.3,0.00,10.8,18.9,"01:42:52",1
"23/06/01","02:00",0.0,13.6,82.1,1008.3,305.6,1.7,2.7,305.8,0.00,10.6,18.7,"01:52:56",1
"23/06/01","02:10",0.0,13.4,82.9,1007.6,305.3,1.7,2.4,318.8,0.00,10.6,18.9,"02:09:46",1
"23/06/01","02:20",0.0,13.4,83.6,1008.1,314.8,2.2,3.4,312.9,0.00,10.7,18.7,"02:14:14",1
"23/06/01","02:30",0.0,13.3,84.2,1007.8,300.2,1.7,2.4,310.0,0.00,10.7,18.6,"02:22:52",1
"23/06/01","02:40",0.0,13.2,84.8,1008.3,313.2,1.3,1.9,318.9,0.00,10.7,18.6,"02:35:00",1
"23/06/01","02:50",0.0,12.9,85.2,1008.3,308.1,1.5,1.8,320.1,0.00,10.5,18.5,"02:41:30",1
"23/06/01","03:00",0.0,12.6,85.8,1008.3,290.6,1.3,2.0,307.5,0.00,10.3,18.6,"02:50:02",1
"23/06/01","03:10",0.0,12.6,86.6,1008.3,310.9,1.5,2.1,317.6,0.00,10.5,18.3,"03:09:00",1
"23/06/01","03:20",0.0,12.3,87.0,1008.3,312.0,1.6,2.1,316.6,0.00,10.2,18.5,"03:10:26",1
"23/06/01","03:30",0.0,12.3,87.7,1008.3,321.1,1.8,2.0,324.5,0.00,10.4,18.3,"03:29:42",1
"23/06/01","03:40",0.0,12.5,88.4,1008.3,307.3,2.0,2.2,322.0,0.00,10.7,18.3,"03:30:10",1
"23/06/01","03:50",0.0,12.3,89.0,1007.8,293.6,1.8,2.4,313.8,0.00,10.6,18.2,"03:48:12",1
"23/06/01","04:00",0.0,12.4,89.5,1007.6,295.8,2.0,2.4,311.4,0.00,10.8,18.3,"03:56:30",1
"23/06/01","04:10",0.0,12.4,89.8,1007.6,297.9,1.7,2.4,316.7,0.00,10.8,18.2,"04:03:02",1
"23/06/01","04:20",0.0,12.3,90.0,1007.8,301.4,1.6,2.0,320.5,0.00,10.7,18.3,"04:11:40",1
"23/06/01","04:30",0.0,12.2,90.3,1007.6,308.0,1.6,1.9,311.5,0.00,10.7,18.1,"04:27:42",1
"23/06/01","04:40",0.0,12.5,90.7,1007.6,325.9,2.0,2.5,324.7,0.00,11.1,18.2,"04:33:38",1
"23/06/01","04:50",0.0,12.3,90.8,1007.4,318.4,1.8,2.2,330.0,0.00,10.9,18.0,"04:40:28",1
"23/06/01","05:00",0.0,12.0,91.2,1007.6,294.0,1.3,1.7,281.8,0.00,10.7,17.8,"04:59:00",1
"23/06/01","05:10",0.0,12.2,91.5,1007.6,309.1,2.1,2.8,319.3,0.00,10.9,17.8,"05:05:10",1
"23/06/01","05:20",0.0,12.2,91.6,1007.6,317.5,1.7,2.1,313.2,0.00,10.9,18.2,"05:16:28",1
"23/06/01","05:30",0.0,12.1,91.9,1007.6,316.8,2.1,2.6,318.8,0.00,10.9,18.0,"05:23:14",1
"23/06/01","05:40",0.0,11.9,92.2,1007.8,310.9,1.6,2.4,318.8,0.00,10.7,17.8,"05:39:00",1
"23/06/01","05:50",0.0,12.2,92.5,1007.8,312.9,1.7,2.4,322.4,0.00,11.1,17.9,"05:43:56",1
"23/06/01","06:00",0.0,12.4,92.7,1007.8,298.5,0.8,2.1,314.2,0.00,11.3,17.9,"05:50:08",1
"23/06/01","06:10",0.0,12.6,92.9,1007.8,287.8,1.0,1.6,312.9,0.00,11.5,17.8,"06:09:40",1
"23/06/01","06:20",0.0,13.1,93.1,1008.3,309.5,1.6,2.2,313.9,0.01,12.1,17.7,"06:16:16",1
"23/06/01","06:30",0.0,13.5,93.2,1008.1,309.8,1.2,2.0,314.3,0.02,12.5,17.8,"06:24:08",1
"23/06/01","06:40",0.0,14.1,93.3,1008.1,309.5,1.1,1.9,318.0,0.04,13.1,17.8,"06:37:16",1
"23/06/01","06:50",0.0,14.7,93.5,1007.8,323.1,1.3,2.1,333.7,0.05,13.7,17.8,"06:44:32",1
"23/06/01","07:00",0.0,15.5,93.3,1007.6,309.8,1.0,1.8,305.1,0.07,14.5,17.7,"06:53:20",1
"23/06/01","07:10",0.0,16.0,92.8,1008.1,294.8,1.0,1.4,307.8,0.05,14.9,17.9,"07:05:04",1
"23/06/01","07:20",0.0,16.5,92.3,1008.1,324.2,1.2,2.1,333.2,0.08,15.3,17.7,"07:12:00",1
"23/06/01","07:30",0.0,17.3,91.1,1008.3,304.0,1.3,2.5,340.7,0.12,15.9,17.7,"07:26:00",1
"23/06/01","07:40",0.0,18.1,89.6,1008.1,321.1,1.2,2.4,342.9,0.12,16.4,17.7,"07:32:24",1
"23/06/01","07:50",0.0,18.5,87.9,1008.3,295.1,1.2,2.1,337.3,0.06,16.5,17.7,"07:40:16",1
"23/06/01","08:00",0.0,18.7,85.3,1007.8,300.8,1.1,2.1,327.0,0.05,16.2,17.7,"07:57:04",1
"23/06/01","08:10",0.0,19.2,83.8,1007.8,333.0,1.2,2.4,342.2,0.07,16.4,17.5,"08:01:20",1
"23/06/01","08:20",0.0,19.3,82.8,1008.1,276.1,1.1,1.9,251.1,0.09,16.3,17.8,"08:19:04",1
"23/06/01","08:30",0.0,20.1,82.3,1007.8,258.2,1.3,2.6,247.9,0.21,17.0,17.8,"08:20:40",1
"23/06/01","08:40",0.0,20.5,79.9,1008.1,288.3,1.2,2.6,333.5,0.19,17.0,18.0,"08:34:32",1
"23/06/01","08:50",0.0,21.5,78.2,1007.6,252.2,0.5,1.8,245.3,0.24,17.6,17.8,"08:44:08",1
"23/06/01","09:00",0.0,21.8,76.5,1007.4,311.4,0.8,1.9,356.1,0.21,17.5,17.8,"08:55:52",1
"23/06/01","09:10",0.0,22.5,74.4,1007.4,310.1,1.0,1.8,329.4,0.34,17.8,18.0,"09:03:20",1
"23/06/01","09:20",0.0,22.9,71.7,1006.9,30.8,0.6,2.1,344.7,0.29,17.6,17.9,"09:10:02",1
"23/06/01","09:30",0.0,23.6,71.2,1006.4,261.2,0.6,2.6,173.6,0.36,18.1,18.0,"09:29:04",1
"23/06/01","09:40",0.0,23.8,70.5,1006.4,124.9,1.2,2.8,88.5,0.32,18.2,18.0,"09:32:48",1
"23/06/01","09:50",0.0,22.9,71.1,1006.4,147.0,1.7,3.9,194.5,0.18,17.4,18.1,"09:49:20",1
"23/06/01","10:00",0.0,23.0,73.2,1006.2,185.8,1.5,3.4,189.2,0.21,18.0,18.1,"09:50:24",1
"23/06/01","10:10",0.0,23.6,71.9,1006.2,202.1,1.1,2.5,207.7,0.29,18.3,18.3,"10:00:08",1
"23/06/01","10:20",0.0,24.0,70.1,1006.0,7.1,0.7,2.2,341.5,0.22,18.3,18.3,"10:19:52",1
"23/06/01","10:30",0.0,24.1,69.5,1006.0,165.6,0.6,1.6,229.4,0.17,18.2,18.4,"10:23:20",1
"23/06/01","10:40",0.0,24.1,69.6,1006.0,107.9,1.0,2.4,107.2,0.19,18.2,18.2,"10:38:56",1
"23/06/01","10:50",0.0,24.9,68.7,1005.5,82.2,1.1,2.8,97.1,0.36,18.8,18.4,"10:45:04",1
"23/06/01","11:00",0.0,25.4,67.1,1005.2,133.3,1.1,2.9,132.3,0.38,18.9,18.6,"10:50:40",1
"23/06/01","11:10",0.0,25.7,65.8,1005.5,92.7,0.7,3.1,136.5,0.26,18.9,18.5,"11:00:32",1
"23/06/01","11:20",0.0,25.8,65.1,1005.5,93.8,1.0,2.5,117.9,0.27,18.8,18.7,"11:14:16",1
"23/06/01","11:30",0.0,25.9,64.7,1005.5,99.6,1.1,2.5,50.3,0.27,18.8,18.7,"11:21:52",1
"23/06/01","11:40",0.0,25.6,64.8,1005.2,97.1,0.8,3.5,126.4,0.21,18.5,18.7,"11:36:16",1
"23/06/01","11:50",0.0,25.7,66.2,1005.0,105.0,1.2,3.1,111.8,0.26,19.0,18.7,"11:47:28",1
"23/06/01","12:00",0.0,26.1,65.0,1005.2,114.2,1.2,2.6,117.3,0.32,19.0,19.0,"11:50:24",1
"23/06/01","12:10",0.0,26.2,64.7,1005.2,91.0,0.8,2.9,107.9,0.26,19.1,18.7,"12:00:08",1
"23/06/01","12:20",0.0,25.9,64.1,1005.0,115.8,1.2,3.3,140.8,0.19,18.6,18.9,"12:19:28",1
"23/06/01","12:30",0.0,26.1,65.1,1004.5,109.6,1.5,3.7,110.7,0.31,19.1,19.0,"12:24:08",1
"23/06/01","12:40",0.0,26.3,66.1,1004.8,121.8,1.5,3.4,138.1,0.27,19.5,19.0,"12:36:32",1
"23/06/01","12:50",0.0,26.0,64.1,1004.3,112.3,1.6,3.4,84.9,0.19,18.7,19.0,"12:45:36",1
"23/06/01","13:00",0.0,25.8,65.5,1004.3,95.0,1.2,2.6,100.3,0.18,18.9,19.2,"12:52:08",1
"23/06/01","13:10",0.0,25.8,65.6,1004.1,85.2,1.5,3.6,130.2,0.20,18.9,19.2,"13:00:48",1
"23/06/01","13:20",0.0,25.8,66.7,1004.5,90.5,0.7,2.1,56.8,0.11,19.2,19.3,"13:11:20",1
"23/06/01","13:30",0.0,25.4,67.4,1004.8,109.0,1.1,2.2,121.0,0.10,19.0,19.3,"13:28:24",1
"23/06/01","13:40",0.0,25.5,67.1,1004.3,85.7,1.1,2.8,61.6,0.13,19.0,19.4,"13:36:32",1
"23/06/01","13:50",0.0,25.3,67.6,1004.1,90.2,1.3,3.6,82.7,0.10,18.9,19.3,"13:49:04",1
"23/06/01","14:00",0.0,25.0,68.3,1004.1,84.7,1.3,3.7,91.8,0.06,18.8,19.4,"13:50:08",1
"23/06/01","14:10",0.0,24.9,69.4,1004.1,46.2,0.6,1.8,112.5,0.05,19.0,19.4,"14:00:56",1
"23/06/01","14:20",0.0,24.9,69.7,1004.3,15.9,1.0,3.1,15.0,0.05,19.0,19.6,"14:10:24",1
"23/06/01","14:30",0.0,24.9,69.8,1004.1,57.3,0.8,2.6,109.1,0.06,19.0,19.7,"14:27:44",1
"23/06/01","14:40",0.0,24.7,70.4,1004.1,94.9,1.1,2.7,120.2,0.01,19.0,19.6,"14:32:16",1
"23/06/01","14:50",0.0,24.4,71.2,1004.3,80.7,1.1,2.5,64.3,0.00,18.9,19.5,"14:42:00",1
"23/06/01","15:00",0.0,24.4,72.1,1004.3,64.0,0.6,2.1,49.8,0.02,19.1,19.6,"14:55:28",1
"23/06/01","15:10",0.0,24.5,72.2,1004.5,147.3,1.2,3.6,157.9,0.02,19.2,19.6,"15:03:36",1
"23/06/01","15:20",0.0,24.5,71.7,1003.8,174.6,2.0,3.2,155.9,0.04,19.1,19.6,"15:10:56",1
"23/06/01","15:30",0.0,24.9,71.9,1003.6,152.4,1.2,3.1,172.1,0.08,19.5,19.5,"15:20:24",1
"23/06/01","15:40",0.0,25.1,70.7,1003.4,157.9,1.2,2.7,173.2,0.09,19.4,19.6,"15:39:52",1
"23/06/01","15:50",0.0,25.0,70.8,1002.9,173.0,2.0,3.4,190.1,0.07,19.4,19.7,"15:47:36",1
"23/06/01","16:00",0.0,24.9,71.2,1002.9,176.7,2.0,3.4,198.4,0.06,19.4,19.6,"15:52:40",1
"23/06/01","16:10",0.0,25.5,70.7,1003.1,179.0,2.0,3.6,216.7,0.14,19.8,19.7,"16:05:36",1
"23/06/01","16:20",0.0,25.5,70.1,1002.9,156.6,1.2,2.6,150.0,0.08,19.7,19.7,"16:16:32",1
"23/06/01","16:30",0.0,25.0,70.6,1002.9,109.5,1.3,2.7,116.9,0.04,19.3,19.7,"16:22:40",1
"23/06/01","16:40",0.0,24.9,71.5,1002.9,87.6,1.3,2.7,79.3,0.05,19.4,19.6,"16:30:48",1
"23/06/01","16:50",0.0,25.1,71.8,1002.6,95.4,1.2,2.9,143.6,0.09,19.7,19.7,"16:45:20",1
"23/06/01","17:00",0.0,25.2,71.8,1002.6,103.8,1.1,3.3,108.5,0.08,19.8,19.7,"16:55:28",1
"23/06/01","17:10",0.0,25.0,72.3,1002.6,39.3,0.6,1.7,156.9,0.04,19.7,19.8,"17:00:40",1
"23/06/01","17:20",0.0,24.8,72.9,1002.4,19.9,1.1,3.5,23.3,0.03,19.7,19.7,"17:16:32",1
"23/06/01","17:30",0.0,24.5,73.4,1002.4,28.6,1.1,2.9,44.0,0.01,19.5,19.8,"17:27:04",1
"23/06/01","17:40",0.0,24.4,73.8,1002.4,79.5,1.2,2.5,37.2,0.01,19.5,19.9,"17:30:56",1
"23/06/01","17:50",0.0,24.3,74.1,1002.4,77.4,1.2,2.9,67.1,0.00,19.4,19.7,"17:40:08",1
"23/06/01","18:00",0.0,24.2,74.4,1002.4,82.8,1.3,2.7,64.6,0.00,19.4,19.7,"17:58:32",1
"23/06/01","18:10",0.0,24.1,74.6,1002.4,77.2,1.2,3.1,74.1,0.00,19.3,19.8,"18:02:32",1
"23/06/01","18:20",0.0,24.0,74.9,1002.6,83.9,1.0,2.1,64.0,0.00,19.3,20.0,"18:18:32",1
"23/06/01","18:30",0.0,23.9,75.1,1002.6,83.1,1.1,2.8,106.0,0.00,19.3,19.9,"18:22:16",1
"23/06/01","18:40",0.0,23.9,75.5,1003.1,76.6,1.0,2.4,108.6,0.00,19.3,20.0,"18:32:56",1
"23/06/01","18:50",0.0,23.7,75.9,1003.1,93.9,1.3,3.9,109.8,0.00,19.2,19.7,"18:45:36",1
"23/06/01","19:00",0.0,23.6,76.3,1003.4,93.7,1.0,2.6,65.6,0.00,19.2,19.7,"18:53:44",1
"23/06/01","19:10",0.0,23.6,76.6,1003.4,84.1,1.1,2.5,55.1,0.00,19.3,19.8,"19:08:40",1
"23/06/01","19:20",0.0,23.4,76.8,1003.1,52.2,0.7,1.9,89.5,0.00,19.1,19.8,"19:12:56",1
"23/06/01","19:30",0.0,23.4,77.1,1003.4,19.9,0.7,2.1,358.7,0.00,19.2,19.8,"19:29:44",1
"23/06/01","19:40",0.0,23.2,77.5,1003.6,17.9,0.7,2.2,23.6,0.00,19.1,19.9,"19:31:04",1
"23/06/01","19:50",0.0,23.2,77.7,1003.6,21.8,1.0,2.0,322.7,0.00,19.1,19.9,"19:47:04",1
"23/06/01","20:00",0.0,23.1,77.9,1003.6,358.2,0.6,1.4,13.0,0.00,19.1,19.9,"19:52:48",1
"23/06/01","20:10",0.0,23.1,78.2,1003.6,24.8,0.7,1.8,66.5,0.00,19.1,19.7,"20:06:08",1
"23/06/01","20:20",0.0,23.0,78.5,1003.1,22.6,0.6,1.9,28.0,0.00,19.1,19.7,"20:13:36",1
"23/06/01","20:30",0.0,22.9,78.8,1003.4,348.8,0.7,1.4,0.9,0.00,19.1,19.7,"20:24:16",1
"23/06/01","20:40",0.0,22.8,79.2,1003.6,4.6,0.6,1.7,58.3,0.00,19.0,19.9,"20:34:24",1
"23/06/01","20:50",0.0,22.8,79.4,1003.6,11.7,0.3,1.1,0.2,0.00,19.1,19.8,"20:41:36",1
"23/06/01","21:00",0.0,22.7,79.6,1003.6,357.0,0.3,1.2,347.2,0.00,19.0,19.8,"20:50:24",1
"23/06/01","21:10",0.0,22.6,80.0,1003.8,341.4,0.5,1.1,337.0,0.00,19.0,19.7,"21:02:08",1
"23/06/01","21:20",0.0,22.5,80.3,1003.4,22.4,0.3,0.8,38.8,0.00,19.0,19.7,"21:11:04",1
"23/06/01","21:30",0.0,22.5,80.8,1003.6,348.9,0.5,2.0,342.8,0.00,19.1,19.6,"21:29:52",1
"23/06/01","21:40",0.0,22.5,80.9,1003.4,37.3,0.5,1.4,82.9,0.00,19.1,19.7,"21:36:32",1
"23/06/01","21:50",0.0,22.4,81.1,1003.4,12.8,0.3,1.0,88.7,0.00,19.0,19.7,"21:48:00",1
"23/06/01","22:00",0.0,22.4,81.4,1003.4,350.3,0.5,1.6,7.7,0.00,19.1,19.9,"21:56:16",1
"23/06/01","22:10",0.0,22.4,81.6,1003.4,12.3,0.2,0.8,311.9,0.00,19.1,19.6,"22:05:36",1
"23/06/01","22:20",0.0,22.3,81.9,1003.4,33.0,0.2,1.0,115.7,0.00,19.1,19.9,"22:14:56",1
"23/06/01","22:30",0.0,22.3,82.1,1003.4,346.9,0.3,0.9,50.1,0.00,19.1,19.7,"22:27:04",1
"23/06/01","22:40",0.0,22.2,82.3,1003.6,317.2,0.7,1.1,354.5,0.00,19.1,19.7,"22:32:40",1
"23/06/01","22:50",1.2,22.1,82.7,1003.4,317.6,0.7,1.2,322.2,0.00,19.1,19.6,"22:42:48",1
"23/06/01","23:00",2.2,22.0,84.3,1003.1,180.8,0.7,2.4,148.9,0.00,19.3,19.8,"22:55:52",1
"23/06/01","23:10",0.8,21.4,85.9,1003.4,160.1,0.3,1.0,131.7,0.00,19.0,19.7,"23:06:24",1
"23/06/01","23:20",0.6,21.3,87.2,1003.6,144.2,0.5,1.4,123.2,0.00,19.1,19.6,"23:16:08",1
"23/06/01","23:30",0.6,21.1,88.0,1003.1,92.7,0.3,1.2,156.9,0.00,19.1,19.6,"23:20:08",1
"23/06/01","23:40",0.2,21.0,88.7,1003.1,27.7,0.3,1.1,319.3,0.00,19.1,19.7,"23:39:20",1
"23/06/01","23:50",0.2,20.9,89.3,1003.1,296.2,0.6,1.1,310.1,0.00,19.1,19.7,"23:41:44",1
"23/06/01","24:00",0.2,21.0,90.1,1003.1,297.6,1.0,1.6,294.9,0.00,19.4,19.6,"23:58:32",1
